Preview of NWS' New Version of Forecast
This preview is not operational and should not be used for support decisions.

Regional Weather Roundup (RWR)

Issued by National Weather Service (NWS)

                            
000
ASCA42 TJSJ 192010
RWRPR 
PUERTO RICO/U.S. VIRGIN ISLANDS HOURLY WEATHER ROUNDUP
NATIONAL WEATHER SERVICE SAN JUAN PR
400 PM AST TUE FEB 19 2019

PRZ001>002-007>008-010-192100-
PUERTO RICO
  
CITY           SKY/WX    TMP DP  RH WIND       PRES   REMARKS
SAN JUAN LMM   LGT RAIN  79  72  78 E21       30.09S                  
CEIBA          CLOUDY    75  70  83 NE7       30.09F                  
$$

VIZ001>002-192100-
U.S. VIRGIN ISLANDS
  
CITY           SKY/WX    TMP DP  RH WIND       PRES   REMARKS
CHARLOTTE AMA  MOSUNNY   84  63  48 E17G29    30.06F                  
CHRISTIANSTED  MOSUNNY   88  64  45 E22G28    30.06F                  
$$

HOURLY WEATHER ROUNDUP FOR THE NEWS MEDIA
  
CITY           SKY/WX    TMP DP  RH WIND       PRES   REMARKS
ORLANDO        FAIR      84  67  56 SE7       30.14F                  
NEW YORK       PTSUNNY   36   8  31 NW15      30.55S WCI  27          
NEWARK         PTSUNNY   37   3  24 NW16G22   30.54F WCI  28          
CHICAGO        PTSUNNY   33  16  49 E5        30.52F WCI  29          
HARTFORD       FAIR      32   8  36 W7        30.45S WCI  26          
BOSTON         FAIR      32   3  29 W12G23    30.45S WCI  23          
DALLAS         LGT RAIN  39  37  92 NE8       30.01F FOG     WCI  33  
PHILADELPHIA   PTSUNNY   38   7  27 NW12      30.57S WCI  30          
LOS ANGELES    MOSUNNY   58  25  28 E5        30.14F                  
WASHINGTON DC  PTSUNNY   39   7  26 NW12      30.57F WCI  32